Poughkeepsie, NY

3:14 AM EDT on April 20, 2018 (GMT -0400)
Dutchess County

Weather History for KPOU - September, 2012

Change the Weather History Date:

Friday, September 21, 2012

  Actual Average Record
Temperature  
Mean Temperature 62 °F 61 °F  
Max Temperature 72 °F 73 °F 89 °F (1965)
Min Temperature 51 °F 49 °F 30 °F (1962)
Degree Days  
Heating Degree Days 3 5  
Month to date heating degree days 47 61  
Since 1 July heating degree days 49 78  
Cooling Degree Days 0 1  
Month to date cooling degree days 78 57  
Year to date cooling degree days 889 661  
Growing Degree Days 12 (Base 50)    
Moisture  
Dew Point 53 °F    
Average Humidity 77    
Maximum Humidity 96    
Minimum Humidity 57    
Precipitation  
Precipitation 0.00 in 0.14 in 3.77 in (1966)
Month to date precipitation 4.21 2.92  
Year to date precipitation 26.39 33.70  
Sea Level Pressure  
Sea Level Pressure 30.06 in    
Wind  
Wind Speed 2 mph (SSE)    
Max Wind Speed 9 mph    
Max Gust Speed 14 mph    
Visibility 10 miles    
Events      
T = Trace of Precipitation, MM = Missing Value Source: NWS Daily Summary

Daily Weather History Graph

Daily Weather History Graph

Search for Another Location

Airport or City:

Astronomy

Sep. 21, 2012 Rise Set
Actual Time 6:42 AM EDT 6:53 PM EDT
Civil Twilight 6:14 AM EDT 7:21 PM EDT
Nautical Twilight 5:42 AM EDT 7:53 PM EDT
Astronomical Twilight 5:08 AM EDT 8:26 PM EDT
Moon 1:06 PM EDT (9/21) 10:46 PM EDT (9/21)
Length of Visible Light 13h 06m
Length of Day
12h 11m
Waxing Crescent, 37% of the Moon is Illuminated
Sep 21
Waxing Crescent
Sep 22
First Quarter
Sep 29
Full
Oct 8
Last Quarter
Oct 15
New

Hourly Weather History & Observations

Time (EDT) Temp. Dew Point Humidity Pressure Visibility Wind Dir Wind Speed Gust Speed Precip Events Conditions
12:53 AM 54.0 °F 51.1 °F 90% 30.11 in 10.0 mi Calm Calm - N/A   Mostly Cloudy
1:53 AM 52.0 °F 50.0 °F 93% 30.11 in 10.0 mi Calm Calm - N/A   Clear
2:53 AM 52.0 °F 48.9 °F 89% 30.10 in 10.0 mi Calm Calm - N/A   Clear
3:53 AM 51.1 °F 48.9 °F 92% 30.10 in 10.0 mi Calm Calm - N/A   Clear
4:53 AM 53.1 °F 51.1 °F 93% 30.10 in 10.0 mi Calm Calm - N/A   Overcast
5:53 AM 53.1 °F 50.0 °F 89% 30.09 in 10.0 mi Calm Calm - N/A   Mostly Cloudy
6:53 AM 51.1 °F 48.9 °F 92% 30.10 in 10.0 mi Calm Calm - N/A   Mostly Cloudy
7:53 AM 54.0 °F 52.0 °F 93% 30.11 in 10.0 mi Calm Calm - N/A   Overcast
8:53 AM 60.1 °F 54.0 °F 80% 30.10 in 10.0 mi ESE 5.8 mph - N/A   Scattered Clouds
9:53 AM 64.0 °F 54.0 °F 70% 30.10 in 10.0 mi Variable 3.5 mph - N/A   Clear
10:53 AM 66.9 °F 54.0 °F 63% 30.09 in 10.0 mi Variable 4.6 mph - N/A   Mostly Cloudy
11:12 AM 68.0 °F 55.4 °F 64% 30.09 in 10.0 mi SSE 6.9 mph - N/A   Mostly Cloudy
11:53 AM 69.1 °F 55.0 °F 61% 30.07 in 10.0 mi SSE 4.6 mph - N/A   Mostly Cloudy
12:53 PM 69.1 °F 54.0 °F 58% 30.06 in 10.0 mi South 5.8 mph - N/A   Overcast
1:53 PM 72.0 °F 55.9 °F 57% 30.04 in 10.0 mi Variable 5.8 mph - N/A   Overcast
2:53 PM 70.0 °F 55.9 °F 61% 30.03 in 10.0 mi South 4.6 mph - N/A   Overcast
3:53 PM 71.1 °F 55.0 °F 57% 30.02 in 10.0 mi Variable 5.8 mph - N/A   Mostly Cloudy
4:53 PM 71.1 °F 55.0 °F 57% 30.01 in 10.0 mi Variable 4.6 mph - N/A   Mostly Cloudy
5:53 PM 70.0 °F 55.0 °F 59% 30.01 in 10.0 mi Calm Calm - N/A   Partly Cloudy
6:53 PM 66.2 °F 57.2 °F 73% 30.01 in 10.0 mi ESE 3.5 mph - N/A   Clear
7:53 PM 63.0 °F 54.0 °F 72% 30.01 in 10.0 mi Calm Calm - N/A   Clear
8:53 PM 59.0 °F 53.1 °F 81% 30.01 in 10.0 mi Calm Calm - N/A   Clear
9:53 PM 55.9 °F 52.0 °F 87% 30.02 in 10.0 mi Calm Calm - N/A   Clear
10:53 PM 55.9 °F 53.1 °F 90% 30.01 in 10.0 mi Calm Calm - N/A   Clear
11:53 PM 55.0 °F 51.1 °F 86% 29.99 in 10.0 mi Calm Calm - N/A   Clear